{"data":{"norad_id":68077,"epoch":"2026-05-25T01:45:56.011680Z","epoch_age_seconds":78854,"freshness":"FRESH","line1":"1 68077U 26042J   26145.07356495  .00013465  00000+0  40887-3 0  9997","line2":"2 68077  53.1584 181.5171 0001609  84.0661 276.0525 15.34404880 14033","mean_motion":15.3440488,"eccentricity":0.0001609,"inclination_deg":53.1584,"raan_deg":181.5171,"arg_perigee_deg":84.0661,"mean_anomaly_deg":276.0525,"bstar":0.00040887,"rev_number":1403,"period_min":93.847459609226,"perigee_km":461.58804699623,"apogee_km":463.78942471803,"semimajor_km":6840.8257358571,"source":"CELESTRAK","updated_at":"2026-05-25T13:38:21.818765Z"}}